Weather History for Nucla Hopkins Field Airport, CO

Change the Weather History Date:

Tuesday, December 3, 2013

  Actual Average Record
Temperature  
Mean Temperature 38 °F -  
Max Temperature 50 °F - - ()
Min Temperature 26 °F - - ()
Degree Days  
Heating Degree Days 27    
Moisture  
Dew Point 26 °F    
Average Humidity 64    
Maximum Humidity 100    
Minimum Humidity 35    
Precipitation  
Precipitation 0.00 in - - ()
Sea Level Pressure  
Sea Level Pressure 29.64 in    
Wind  
Wind Speed 7 mph (South)    
Max Wind Speed 33 mph    
Max Gust Speed 44 mph    
Visibility 10 miles    
Events Rain    
T = Trace of Precipitation, MM = Missing Value Source: NWS Daily Summary

Daily Weather History Graph

Daily Weather History Graph

Search for Another Location

Airport:

Trip Planner

Search our weather history database for the weather conditions in past years. The results will help you decide how hot, cold, wet, or windy it might be!

Date:

Astronomy

Dec. 03, 2013 Rise Set
Actual Time 7:14 AM MST 4:54 PM MST
Civil Twilight 6:45 AM MST 5:23 PM MST
Nautical Twilight 6:12 AM MST 5:56 PM MST
Astronomical Twilight 5:40 AM MST 6:28 PM MST
Moon 7:47 AM MST (12/3) 6:00 PM MST (12/3)
Length of Visible Light 10h 38m
Length of Day
9h 39m
New Moon, 1% of the Moon is Illuminated
Dec 3
New Moon
Dec 9
First Quarter
Dec 17
Full
Dec 25
Last Quarter
Jan 1
New

Hourly Weather History & Observations

Time (MST) Temp. Windchill Dew Point Humidity Pressure Visibility Wind Dir Wind Speed Gust Speed Precip Events Conditions
12:15 AM 28.4 °F 22.2 °F 28.4 °F 100% 29.87 in 10.0 mi SE 5.8 mph - N/A   Clear
12:35 AM 28.4 °F 22.2 °F 26.6 °F 93% 29.86 in 10.0 mi SE 5.8 mph - N/A   Clear
12:55 AM 30.2 °F 25.4 °F 28.4 °F 93% 29.84 in 10.0 mi SE 4.6 mph - N/A   Clear
1:15 AM 30.2 °F 26.7 °F 28.4 °F 93% 29.83 in 10.0 mi SE 3.5 mph - N/A   Clear
1:35 AM 28.4 °F 23.3 °F 26.6 °F 93% 29.82 in 10.0 mi East 4.6 mph - N/A   Clear
1:55 AM 30.2 °F 26.7 °F 26.6 °F 86% 29.82 in 10.0 mi South 3.5 mph - N/A   Clear
2:15 AM 26.6 °F - 24.8 °F 93% 29.81 in 10.0 mi Calm Calm - N/A   Clear
2:35 AM 28.4 °F 23.3 °F 26.6 °F 93% 29.80 in 10.0 mi SSE 4.6 mph - N/A   Clear
2:55 AM 28.4 °F 24.6 °F 26.6 °F 93% 29.78 in 10.0 mi SSW 3.5 mph - N/A   Clear
3:15 AM 28.4 °F 24.6 °F 26.6 °F 93% 29.77 in 10.0 mi ESE 3.5 mph - N/A   Clear
3:35 AM 28.4 °F - 26.6 °F 93% 29.77 in 10.0 mi Calm Calm - N/A   Clear
3:55 AM 28.4 °F 24.6 °F 26.6 °F 93% 29.77 in 10.0 mi East 3.5 mph - N/A   Clear
4:15 AM 26.6 °F 20.0 °F 24.8 °F 93% 29.76 in 10.0 mi ESE 5.8 mph - N/A   Clear
4:35 AM 28.4 °F 20.4 °F 26.6 °F 93% 29.75 in 10.0 mi East 8.1 mph - N/A   Clear
4:55 AM 28.4 °F 21.2 °F 26.6 °F 93% 29.75 in 10.0 mi ESE 6.9 mph - N/A   Clear
5:15 AM 28.4 °F 21.2 °F 24.8 °F 86% 29.75 in 10.0 mi East 6.9 mph - N/A   Clear
5:35 AM 30.2 °F - 26.6 °F 86% 29.74 in 10.0 mi Calm Calm - N/A   Clear
5:55 AM 28.4 °F 23.3 °F 26.6 °F 93% 29.73 in 10.0 mi ESE 4.6 mph - N/A   Clear
6:15 AM 28.4 °F 23.3 °F 24.8 °F 86% 29.73 in 10.0 mi ENE 4.6 mph - N/A   Clear
6:35 AM 30.2 °F - 26.6 °F 86% 29.73 in 10.0 mi Calm Calm - N/A   Clear
6:55 AM 30.2 °F - 26.6 °F 86% 29.73 in 10.0 mi Calm Calm - N/A   Clear
7:15 AM 28.4 °F - 26.6 °F 93% 29.73 in 10.0 mi Calm Calm - N/A   Clear
7:35 AM 30.2 °F - 26.6 °F 86% 29.73 in 10.0 mi Calm Calm - N/A   Clear
7:55 AM 32.0 °F - 26.6 °F 80% 29.73 in 10.0 mi Calm Calm - N/A   Scattered Clouds
8:15 AM 30.2 °F - 28.4 °F 93% 29.72 in 10.0 mi Calm Calm - N/A   Overcast
8:35 AM 32.0 °F 26.4 °F 28.4 °F 87% 29.72 in 10.0 mi ESE 5.8 mph - N/A   Mostly Cloudy
8:55 AM 32.0 °F 26.4 °F 28.4 °F 87% 29.71 in 10.0 mi NE 5.8 mph - N/A   Overcast
9:15 AM 35.6 °F - 28.4 °F 75% 29.72 in 10.0 mi Calm Calm - N/A   Overcast
9:35 AM 39.2 °F - 28.4 °F 65% 29.72 in 10.0 mi Calm Calm - N/A   Overcast
9:55 AM 42.8 °F - 26.6 °F 53% 29.72 in 10.0 mi Calm Calm - N/A   Overcast
10:15 AM 42.8 °F - 28.4 °F 57% 29.71 in 10.0 mi Calm Calm - N/A   Overcast
10:35 AM 41.0 °F - 28.4 °F 61% 29.70 in 10.0 mi Calm Calm - N/A   Overcast
10:55 AM 42.8 °F - 28.4 °F 57% 29.70 in 10.0 mi Calm Calm - N/A   Mostly Cloudy
11:15 AM 42.8 °F 40.1 °F 28.4 °F 57% 29.67 in 10.0 mi SSW 4.6 mph - N/A   Scattered Clouds
11:35 AM 46.4 °F 42.4 °F 24.8 °F 43% 29.66 in 10.0 mi SW 8.1 mph 17.3 mph N/A   Scattered Clouds
11:55 AM 50.0 °F - 23.0 °F 35% 29.65 in 10.0 mi SSW 15.0 mph 32.2 mph N/A   Mostly Cloudy
12:15 PM 50.0 °F - 24.8 °F 37% 29.63 in 10.0 mi SW 13.8 mph 20.7 mph N/A   Mostly Cloudy
12:35 PM 50.0 °F - 24.8 °F 37% 29.63 in 10.0 mi SW 15.0 mph 23.0 mph N/A   Mostly Cloudy
12:55 PM 50.0 °F - 24.8 °F 37% 29.62 in 10.0 mi SSW 12.7 mph 19.6 mph N/A   Overcast
1:15 PM 48.2 °F - 23.0 °F 37% 29.61 in 10.0 mi South 17.3 mph 28.8 mph N/A   Overcast
1:35 PM 46.4 °F 39.2 °F 23.0 °F 40% 29.60 in 10.0 mi SSW 18.4 mph 27.6 mph N/A   Overcast
1:55 PM 46.4 °F 38.5 °F 21.2 °F 37% 29.59 in 10.0 mi South 21.9 mph 27.6 mph N/A   Overcast
2:15 PM 46.4 °F 40.1 °F 21.2 °F 37% 29.59 in 10.0 mi SSW 15.0 mph 20.7 mph N/A   Overcast
2:35 PM 46.4 °F 40.1 °F 23.0 °F 40% 29.58 in 10.0 mi SSW 15.0 mph 19.6 mph N/A   Overcast
2:55 PM 46.4 °F 41.5 °F 23.0 °F 40% 29.57 in 10.0 mi South 10.4 mph - N/A   Overcast
3:15 PM 46.4 °F 42.9 °F 23.0 °F 40% 29.57 in 10.0 mi SSW 6.9 mph 16.1 mph N/A   Overcast
3:35 PM 46.4 °F 41.5 °F 23.0 °F 40% 29.56 in 10.0 mi South 10.4 mph 20.7 mph N/A   Overcast
3:55 PM 46.4 °F 39.2 °F 23.0 °F 40% 29.55 in 10.0 mi SSW 18.4 mph 24.2 mph N/A   Overcast
4:15 PM 46.4 °F 40.1 °F 23.0 °F 40% 29.55 in 10.0 mi SSW 15.0 mph 21.9 mph N/A   Overcast
4:35 PM 46.4 °F 39.8 °F 23.0 °F 40% 29.55 in 10.0 mi SSW 16.1 mph 23.0 mph N/A   Overcast
4:55 PM 46.4 °F 41.1 °F 23.0 °F 40% 29.54 in 10.0 mi South 11.5 mph 17.3 mph N/A   Overcast
5:15 PM 46.4 °F 40.4 °F 23.0 °F 40% 29.53 in 10.0 mi South 13.8 mph 19.6 mph N/A   Overcast
5:35 PM 46.4 °F 41.1 °F 23.0 °F 40% 29.52 in 10.0 mi South 11.5 mph 16.1 mph N/A   Overcast
5:55 PM 46.4 °F 40.7 °F 23.0 °F 40% 29.52 in 10.0 mi SSW 12.7 mph 17.3 mph N/A   Overcast
6:15 PM 46.4 °F 41.9 °F 23.0 °F 40% 29.51 in 10.0 mi SSW 9.2 mph 17.3 mph N/A   Overcast
6:35 PM 46.4 °F 41.9 °F 23.0 °F 40% 29.51 in 10.0 mi SSW 9.2 mph 16.1 mph N/A   Overcast
6:55 PM 46.4 °F 42.4 °F 24.8 °F 43% 29.51 in 10.0 mi South 8.1 mph 12.7 mph N/A   Overcast
7:15 PM 46.4 °F 40.1 °F 24.8 °F 43% 29.49 in 10.0 mi South 15.0 mph 20.7 mph N/A   Overcast
7:35 PM 46.4 °F 39.5 °F 28.4 °F 50% 29.49 in 10.0 mi South 17.3 mph 27.6 mph N/A   Overcast
7:55 PM 44.6 °F 36.4 °F 30.2 °F 57% 29.49 in 7.0 mi South 20.7 mph 28.8 mph N/A   Overcast
8:15 PM 46.4 °F 36.7 °F 32.0 °F 57% 29.50 in 10.0 mi SSW 33.4 mph 43.7 mph N/A Rain Light Rain
8:35 PM 44.6 °F 35.7 °F 32.0 °F 61% 29.49 in 10.0 mi SW 24.2 mph 35.7 mph N/A   Light Drizzle
8:55 PM 44.6 °F 36.9 °F 32.0 °F 61% 29.49 in 10.0 mi South 18.4 mph 23.0 mph N/A   Overcast
9:15 PM 44.6 °F 38.1 °F 32.0 °F 61% 29.49 in 10.0 mi South 13.8 mph 20.7 mph N/A   Overcast
9:35 PM 44.6 °F 38.1 °F 32.0 °F 61% 29.48 in 10.0 mi SSW 13.8 mph 20.7 mph N/A   Overcast
9:55 PM 44.6 °F 38.8 °F 32.0 °F 61% 29.49 in 10.0 mi South 11.5 mph 16.1 mph N/A   Overcast
10:15 PM 46.4 °F 39.8 °F 30.2 °F 53% 29.48 in 10.0 mi SSW 16.1 mph 20.7 mph N/A   Overcast
10:35 PM 46.4 °F 38.1 °F 30.2 °F 53% 29.46 in 10.0 mi SSW 24.2 mph 33.4 mph N/A   Overcast
10:55 PM 46.4 °F 38.3 °F 28.4 °F 50% 29.46 in 10.0 mi SSW 23.0 mph 31.1 mph N/A   Mostly Cloudy
11:15 PM 46.4 °F 37.9 °F 30.2 °F 53% 29.46 in 10.0 mi SSW 25.3 mph 35.7 mph N/A   Overcast
11:35 PM 44.6 °F 35.9 °F 28.4 °F 53% 29.46 in 10.0 mi South 23.0 mph 33.4 mph N/A   Overcast
11:55 PM 44.6 °F 35.5 °F 28.4 °F 53% 29.46 in 10.0 mi SSW 25.3 mph 33.4 mph N/A   Overcast